TimeEDT,TemperatureF,Dew PointF,Humidity,Sea Level PressureIn,VisibilityMPH,Wind Direction,Wind SpeedMPH,Gust SpeedMPH,PrecipitationIn,Events,Conditions,WindDirDegrees,DateUTC
12:56 AM,43.0,14.0,31,30.08,10.0,South,16.1,26.5,N/A,,Mostly Cloudy,170,2013-04-07 04:56:00
1:56 AM,43.0,15.1,32,30.04,10.0,South,15.0,32.2,N/A,,Overcast,170,2013-04-07 05:56:00
2:56 AM,43.0,15.1,32,30.02,10.0,South,10.4,20.7,N/A,,Overcast,180,2013-04-07 06:56:00
3:56 AM,43.0,16.0,34,29.99,10.0,South,13.8,21.9,N/A,,Clear,180,2013-04-07 07:56:00
4:56 AM,43.0,17.1,35,29.97,10.0,SSE,13.8,27.6,N/A,,Partly Cloudy,150,2013-04-07 08:56:00
5:56 AM,42.1,18.0,38,29.97,10.0,South,13.8,20.7,N/A,,Clear,170,2013-04-07 09:56:00
6:56 AM,42.1,19.0,40,29.96,10.0,South,16.1,24.2,N/A,,Clear,180,2013-04-07 10:56:00
7:56 AM,44.1,21.0,40,29.94,10.0,South,10.4,24.2,N/A,,Clear,180,2013-04-07 11:56:00
8:56 AM,48.0,23.0,37,29.91,10.0,South,11.5,28.8,N/A,,Clear,180,2013-04-07 12:56:00
9:56 AM,52.0,25.0,35,29.88,10.0,South,12.7,27.6,N/A,,Clear,190,2013-04-07 13:56:00
10:56 AM,55.9,27.0,33,29.86,10.0,SSW,18.4,36.8,N/A,,Clear,200,2013-04-07 14:56:00
11:56 AM,59.0,28.0,31,29.83,10.0,SSW,19.6,29.9,N/A,,Partly Cloudy,200,2013-04-07 15:56:00
12:56 PM,61.0,30.0,31,29.83,10.0,SSW,16.1,31.1,N/A,,Overcast,210,2013-04-07 16:56:00
1:56 PM,63.0,35.1,35,29.83,10.0,SW,15.0,31.1,N/A,,Clear,230,2013-04-07 17:56:00
2:56 PM,64.0,35.1,34,29.82,10.0,SW,20.7,35.7,N/A,,Scattered Clouds,220,2013-04-07 18:56:00
3:56 PM,64.9,34.0,32,29.81,10.0,WSW,18.4,32.2,N/A,,Mostly Cloudy,250,2013-04-07 19:56:00
4:56 PM,66.9,33.1,28,29.82,10.0,WSW,21.9,36.8,N/A,,Scattered Clouds,250,2013-04-07 20:56:00
5:56 PM,64.9,34.0,32,29.84,10.0,WSW,16.1,26.5,N/A,,Overcast,240,2013-04-07 21:56:00
6:56 PM,60.1,41.0,49,29.89,10.0,WNW,19.6,27.6,N/A,,Scattered Clouds,300,2013-04-07 22:56:00
7:56 PM,54.0,39.9,59,29.93,10.0,WNW,12.7,-,N/A,,Partly Cloudy,300,2013-04-07 23:56:00
10:56 PM,44.1,36.0,73,30.02,10.0,NW,8.1,-,N/A,,Clear,310,2013-04-08 02:56:00
11:56 PM,41.0,35.1,79,30.03,10.0,NNW,9.2,-,N/A,,Clear,330,2013-04-08 03:56:00